Regional Weather Roundup
Issued by NWS

Home | Current Version | Previous Version | Graphics & Text | Print | Product List | Glossary On
Versions: 1 2 3 4 5 6 7 8 9 10 11 12 13 14 15 16 17 18 19 20 21 22 23 24 25 26 27 28 29 30 31 32 33 34 35 36 37 38 39 40 41 42 43 44 45 46 47 48 49 50
000
ASUS43 KOAX 302102
RWRNE

WEATHER ROUNDUP FOR NEBRASKA
NATIONAL WEATHER SERVICE OMAHA NE
400 PM CDT SUN AUG 30 2015

NOTES: SATELLITE DATA IS BEING USED TO AUGMENT CLOUD COVER ABOVE
       12000 FEET.
       "FAIR" INDICATES FEW OR NO CLOUDS BELOW 12,000 FEET WITH NO
       SIGNIFICANT WEATHER AND/OR OBSTRUCTIONS TO VISIBILITY.

  * THESE STATIONS DO NOT REPORT WEATHER SUCH AS RAIN...SNOW OR FOG.

NEZ001>004-019>022-054>056-302200-
NEBRASKA PANHANDLE

CITY           SKY/WX    TMP DP  RH WIND       PRES   REMARKS
SCOTTSBLUFF    SUNNY     97  45  16 E10       29.89F HX  93
ALLIANCE       SUNNY     97  40  14 S9        29.89F HX  92
CHADRON        SUNNY    102  40  12 S10       29.79F HX  97
KIMBALL        SUNNY     94  38  14 CALM      29.95F HX  90
SIDNEY         SUNNY     97  35  11 S14G23    29.95F HX  92
$$

NEZ057>060-069>072-079>082-302200-
SOUTHWEST NEBRASKA

CITY           SKY/WX    TMP DP  RH WIND       PRES   REMARKS
NORTH PLATTE   SUNNY     92  43  18 S18G25    29.92F
IMPERIAL       SUNNY     95  37  13 S18G26    29.95F HX  90
MCCOOK         SUNNY     97  39  13 S17G24    29.94F HX  92
$$

NEZ005>010-023>029-035>040-094-302200-
NORTH CENTRAL NEBRASKA

CITY           SKY/WX    TMP DP  RH WIND       PRES   REMARKS
VALENTINE      CLOUDY    96  43  16 S25G40    29.83F HX  92
AINSWORTH      SUNNY     92  44  18 S24G30    29.88F
BROKEN BOW     SUNNY     89  56  32 S17G26    29.95F
O`NEILL        SUNNY     87  64  47 S17       29.91F
ORD            SUNNY     88  60  38 S13G22    29.92F
$$

NEZ041-046>049-061>064-073>077-083>087-302200-
SOUTH CENTRAL NEBRASKA

CITY           SKY/WX    TMP DP  RH WIND       PRES   REMARKS
GRAND ISLAND   SUNNY     79  63  57 SE15      29.98F
AURORA         SUNNY     77  65  66 S12       29.98F
HASTINGS       SUNNY     79  63  57 S12       29.98F
KEARNEY *      SUNNY     84  63  48 SE15      29.97F
YORK           SUNNY     75  66  73 S10       29.99F
$$

NEZ011>018-030>034-042>045-302200-
NORTHEAST NEBRASKA

CITY           SKY/WX    TMP DP  RH WIND       PRES   REMARKS
NORFOLK        SUNNY     77  65  66 S16       29.96F
BLAIR          PTSUNNY   73  65  75 S12       30.01F
COLUMBUS *     SUNNY     75  64  69 SE9       29.98F
FREMONT        MOSUNNY   74  65  73 SE12      30.00F
TEKAMAH        PTSUNNY   74  66  76 S9        29.99F
$$

NEZ050>053-065>068-078-088>093-302200-
SOUTHEAST NEBRASKA

CITY           SKY/WX    TMP DP  RH WIND       PRES   REMARKS
LINCOLN        SUNNY     78  66  66 SE13      30.01F
OMAHA EPPLEY   PTSUNNY   75  65  70 S12       30.00F
FALLS CITY     PTSUNNY   80  69  69 VRB5      30.00F
$$

NEZ044-045-051>053-067-302200-
OMAHA AREA

CITY           SKY/WX    TMP DP  RH WIND       PRES   REMARKS
OMAHA EPPLEY   PTSUNNY   75  65  70 S12       30.00F
BLAIR          PTSUNNY   73  65  75 S12       30.01F
FREMONT        MOSUNNY   74  65  73 SE12      30.00F
OFFUTT AFB     PTSUNNY   76  66  72 S10       30.00F
$$



USA.gov is the U.S. government's official web portal to all federal, state and local government web resources and services.